Fairbanks Eiels, AK

7:57 PM AKDT on May 24, 2018 (GMT -0800)
Eielson Air Force Base

Weather History for PAEI - April, 2013

Change the Weather History Date:

Monday, April 8, 2013

  Actual Average Record
Temperature  
Mean Temperature -2 °F -  
Max Temperature 11 °F 36 °F 56 °F (1990)
Min Temperature -13 °F 16 °F -13 °F (2013)
Degree Days  
Heating Degree Days 66    
Moisture  
Dew Point -2 °F    
Average Humidity 77    
Maximum Humidity 85    
Minimum Humidity 67    
Precipitation  
Precipitation 0.07 in - - ()
Sea Level Pressure  
Sea Level Pressure 29.74 in    
Wind  
Wind Speed 3 mph (West)    
Max Wind Speed 8 mph    
Max Gust Speed -    
Visibility 5 miles    
Events Snow    
Averages and records for this station are not official NWS values.
T = Trace of Precipitation, MM = Missing Value Source: NWS Daily Summary

Daily Weather History Graph

Daily Weather History Graph

Search for Another Location

Airport or City:

Astronomy

Apr. 08, 2013 Rise Set
Actual Time 6:38 AM AKDT 9:04 PM AKDT
Civil Twilight 5:44 AM AKDT 9:58 PM AKDT
Nautical Twilight 4:31 AM AKDT 11:13 PM AKDT
Astronomical Twilight 2:22 AM AKDT 1:17 AM AKDT
Moon 6:02 AM AKDT (4/8) 7:31 PM AKDT (4/8)
Length of Visible Light 16h 13m
Length of Day
14h 25m
Waning Crescent, 3% of the Moon is Illuminated
Apr 8
Waning Crescent
Apr 10
New
Apr 18
First Quarter
Apr 25
Full
May 2
Last Quarter

Hourly Weather History & Observations

Time (AKDT) Temp. Windchill Dew Point Humidity Pressure Visibility Wind Dir Wind Speed Gust Speed Precip Events Conditions
12:55 AM -0.6 °F -10.6 °F -4.5 °F 83% 29.95 in 10.0 mi Variable 4.6 mph - N/A   Partly Cloudy
1:55 AM -3.6 °F -14.1 °F -8.3 °F 80% 29.96 in 10.0 mi South 4.6 mph - N/A   Clear
2:55 AM -7.2 °F -16.1 °F -12.3 °F 79% 29.96 in 9.0 mi SSE 3.5 mph - N/A   Clear
3:19 AM -9.4 °F - -16.6 °F 71% 29.96 in 5.0 mi Calm Calm - N/A   Haze
3:25 AM -9.4 °F - -14.8 °F 77% 29.96 in 4.0 mi Calm Calm - N/A   Haze
3:55 AM -13.9 °F - -19.8 °F 75% 29.96 in 10.0 mi Calm Calm - N/A   Clear
4:55 AM -13.0 °F - -18.8 °F 75% 29.94 in 10.0 mi Calm Calm - N/A   Clear
5:55 AM -12.1 °F - -17.3 °F 78% 29.93 in 10.0 mi Calm Calm - N/A   Mostly Cloudy
6:55 AM -7.8 °F - -12.8 °F 79% 29.91 in 10.0 mi Calm Calm - N/A   Clear
7:55 AM -6.3 °F -19.1 °F -11.2 °F 79% 29.89 in 10.0 mi Variable 5.8 mph - N/A   Partly Cloudy
8:55 AM -2.9 °F - -7.6 °F 80% 29.87 in 10.0 mi Calm Calm - N/A Snow Light Snow
9:55 AM 0.7 °F -7.1 °F -3.6 °F 82% 29.86 in 10.0 mi Variable 3.5 mph - 0.00 in Snow Light Snow
10:55 AM 4.5 °F -2.7 °F -0.0 °F 82% 29.83 in 2.5 mi NNW 3.5 mph - 0.00 in Snow Light Snow
11:19 AM 5.0 °F -4.1 °F -0.4 °F 78% 29.83 in 4.0 mi WNW 4.6 mph - N/A Snow Light Snow
11:41 AM 6.8 °F - -0.4 °F 72% 29.77 in 2.5 mi Calm Calm - N/A Snow Light Snow
11:42 AM 6.8 °F -3.5 °F 1.4 °F 79% 29.76 in 2.5 mi West 5.8 mph - N/A Snow Light Snow
11:55 AM 7.5 °F 0.8 °F 0.9 °F 74% 29.81 in 3.0 mi Variable 3.5 mph - 0.00 in Snow Light Snow
12:17 PM 8.6 °F 2.0 °F 1.4 °F 73% 29.80 in 2.5 mi West 3.5 mph - N/A Snow Light Snow
12:41 PM 8.6 °F 0.1 °F 1.4 °F 73% 29.79 in 4.0 mi WNW 4.6 mph - N/A Snow Light Snow
12:55 PM 9.5 °F -0.3 °F 2.1 °F 72% 29.79 in 2.5 mi Variable 5.8 mph - 0.00 in Snow Light Snow
1:47 PM 8.6 °F -1.3 °F 1.4 °F 73% 29.72 in 4.0 mi WNW 5.8 mph - N/A Snow Light Snow
1:55 PM 9.3 °F -0.5 °F 1.0 °F 69% 29.78 in 5.0 mi West 5.8 mph - 0.00 in Snow Light Snow
2:55 PM 10.6 °F -1.3 °F 2.5 °F 70% 29.75 in 4.0 mi West 8.1 mph - 0.00 in Snow Light Snow
3:55 PM 10.6 °F 1.0 °F 1.8 °F 68% 29.73 in 5.0 mi Variable 5.8 mph - 0.00 in Snow Light Snow
4:55 PM 10.8 °F 1.2 °F 1.9 °F 68% 29.70 in 5.0 mi West 5.8 mph - 0.00 in Snow Light Snow
5:24 PM 10.4 °F 2.2 °F 1.4 °F 67% 29.63 in 1.8 mi WNW 4.6 mph - N/A Snow Light Snow
5:45 PM 10.4 °F 2.2 °F 3.2 °F 73% 29.62 in 1.5 mi Variable 4.6 mph - N/A Snow Light Snow
5:55 PM 10.4 °F 2.2 °F 3.2 °F 73% 29.68 in 1.5 mi WSW 4.6 mph - 0.00 in Snow Light Snow
6:12 PM 10.4 °F 4.0 °F 3.2 °F 73% 29.66 in 1.0 mi WSW 3.5 mph - N/A Snow Light Snow
6:55 PM 10.2 °F - 5.0 °F 79% 29.64 in 1.0 mi Calm Calm - 0.00 in Snow Light Snow
7:25 PM 10.4 °F 4.0 °F 5.0 °F 79% 29.62 in 1.0 mi Variable 3.5 mph - N/A Snow Light Snow
7:55 PM 9.9 °F 1.6 °F 4.8 °F 80% 29.61 in 0.8 mi West 4.6 mph - 0.00 in Snow Light Snow
8:55 PM 8.8 °F -1.1 °F 4.3 °F 82% 29.59 in 1.0 mi WSW 5.8 mph - 0.00 in Snow Light Snow
9:06 PM 8.6 °F 2.0 °F 5.0 °F 85% 29.59 in 5.0 mi Variable 3.5 mph - N/A Snow Light Snow
9:55 PM 8.4 °F - 4.3 °F 83% 29.56 in 6.0 mi Calm Calm - 0.00 in Snow Light Snow
10:55 PM 8.1 °F 1.4 °F 3.7 °F 83% 29.53 in 4.0 mi WSW 3.5 mph - 0.00 in Snow Light Snow
10:58 PM 8.6 °F - 3.2 °F 79% 29.53 in 6.0 mi Calm Calm - N/A Snow Light Snow
11:12 PM 8.6 °F - 3.2 °F 79% 29.52 in 8.0 mi Calm Calm - N/A Snow Light Snow
11:18 PM 8.6 °F - 3.2 °F 79% 29.52 in 7.0 mi Calm Calm - N/A Snow Light Snow
11:36 PM 8.6 °F 2.0 °F 3.2 °F 79% 29.51 in 6.0 mi South 3.5 mph - N/A Snow Light Snow
11:39 PM 8.6 °F 2.0 °F 3.2 °F 79% 29.51 in 5.0 mi Variable 3.5 mph - N/A   Haze
11:55 PM 7.7 °F -0.9 °F 3.4 °F 83% 29.50 in 5.0 mi Variable 4.6 mph - 0.00 in   Haze